Kaneohe MCBH, HI

8:09 AM HST on June 27, 2017 (GMT -1000)
Kaneohe Bay Marine Corps Air Facility

Weather History for PHNG - November, 2012

Change the Weather History Date:

Thursday, November 1, 2012

  Actual Average Record
Temperature  
Mean Temperature 76 °F -  
Max Temperature 82 °F 79 °F 84 °F (1996)
Min Temperature 71 °F 72 °F 69 °F (1997)
Cooling Degree Days 12    
Growing Degree Days 26 (Base 50)    
Moisture  
Dew Point 66 °F    
Average Humidity 71    
Maximum Humidity 85    
Minimum Humidity 57    
Precipitation  
Precipitation 0.00 in - - ()
Sea Level Pressure  
Sea Level Pressure 29.98 in    
Wind  
Wind Speed 3 mph (East)    
Max Wind Speed 8 mph    
Max Gust Speed -    
Visibility 10 miles    
Events      
Averages and records for this station are not official NWS values.
T = Trace of Precipitation, MM = Missing Value Source: NWS Daily Summary

Daily Weather History Graph

Daily Weather History Graph

Search for Another Location

Airport or City:

Trip Planner

Search our weather history database for the weather conditions in past years. The results will help you decide how hot, cold, wet, or windy it might be!

Date:

Astronomy

Nov. 01, 2012 Rise Set
Actual Time 6:34 AM HST 5:54 PM HST
Civil Twilight 6:11 AM HST 6:17 PM HST
Nautical Twilight 5:45 AM HST 6:43 PM HST
Astronomical Twilight 5:19 AM HST 7:09 PM HST
Moon 8:15 PM HST (11/1) 9:01 AM HST (11/1)
Length of Visible Light 12h 05m
Length of Day
11h 19m
Waning Gibbous, 92% of the Moon is Illuminated
Nov 1
Waning Gibbous
Nov 6
Last Quarter
Nov 13
New
Nov 20
First Quarter
Nov 28
Full

Hourly Weather History & Observations

Time (HST) Temp. Heat Index Dew Point Humidity Pressure Visibility Wind Dir Wind Speed Gust Speed Precip Events Conditions
12:57 AM 73.4 °F - 64.4 °F 73% 30.00 in 10.0 mi ESE 4.6 mph - N/A   Scattered Clouds
1:57 AM 73.4 °F - 65.1 °F 75% 29.99 in 10.0 mi ESE 3.5 mph - N/A   Scattered Clouds
2:57 AM 73.4 °F - 64.4 °F 73% 29.97 in 10.0 mi Calm Calm - N/A   Mostly Cloudy
3:57 AM 73.4 °F - 66.2 °F 78% 29.97 in 10.0 mi Calm Calm - N/A   Clear
4:57 AM 71.6 °F - 66.9 °F 85% 29.97 in 10.0 mi Calm Calm - N/A   Clear
5:57 AM 73.4 °F - 66.0 °F 78% 29.98 in 10.0 mi Calm Calm - N/A   Partly Cloudy
6:57 AM 73.4 °F - 66.7 °F 80% 30.00 in 10.0 mi Calm Calm - N/A   Partly Cloudy
7:57 AM 73.4 °F - 67.8 °F 83% 30.01 in 10.0 mi Calm Calm - N/A   Partly Cloudy
8:57 AM 73.4 °F - 68.0 °F 83% 30.02 in 10.0 mi Calm Calm - N/A   Partly Cloudy
9:57 AM 75.2 °F - 66.0 °F 73% 30.02 in 10.0 mi NNE 5.8 mph - N/A   Partly Cloudy
10:57 AM 77.0 °F - 64.9 °F 66% 30.02 in 10.0 mi NNE 6.9 mph - N/A   Scattered Clouds
11:57 AM 78.8 °F - 66.0 °F 65% 30.00 in 10.0 mi NE 5.8 mph - N/A   Scattered Clouds
12:57 PM 82.4 °F 84.4 °F 66.0 °F 57% 29.98 in 10.0 mi NE 8.1 mph - N/A   Scattered Clouds
1:57 PM 78.8 °F - 66.0 °F 65% 29.95 in 10.0 mi East 8.1 mph - N/A   Scattered Clouds
2:57 PM 78.8 °F - 66.0 °F 65% 29.94 in 10.0 mi East 5.8 mph - N/A   Scattered Clouds
3:04 PM - - - N/A% 29.95 in 6.2 mi East 6.9 mph - N/A   Overcast
3:16 PM 78.8 °F - 66.2 °F 65% 29.95 in 6.2 mi ENE 6.9 mph - N/A   Scattered Clouds
3:57 PM 78.8 °F - 66.9 °F 67% 29.94 in 10.0 mi ENE 6.9 mph - N/A   Scattered Clouds
4:57 PM 77.0 °F - 66.0 °F 69% 29.94 in 10.0 mi ENE 5.8 mph - N/A   Scattered Clouds
5:57 PM 77.0 °F - 68.5 °F 75% 29.95 in 10.0 mi East 3.5 mph - N/A   Scattered Clouds
6:57 PM 77.0 °F - 64.0 °F 64% 29.97 in 10.0 mi East 3.5 mph - N/A   Scattered Clouds
7:57 PM 75.2 °F - 64.0 °F 68% 29.99 in 10.0 mi East 4.6 mph - N/A   Scattered Clouds
8:57 PM 75.2 °F - 64.0 °F 68% 29.99 in 10.0 mi Calm Calm - N/A   Scattered Clouds
9:57 PM 75.2 °F - 64.0 °F 68% 29.99 in 10.0 mi East 3.5 mph - N/A   Scattered Clouds
10:57 PM 75.2 °F - 64.0 °F 68% 29.99 in 10.0 mi ESE 4.6 mph - N/A   Scattered Clouds
11:57 PM 75.2 °F - 64.0 °F 68% 29.99 in 10.0 mi SSW 3.5 mph - N/A   Mostly Cloudy